�������l�o���
Date,Time,MP-1(��Sv/h),MP-2(��Sv/h),MP-3(��Sv/h),MP-4(��Sv/h),MP-5(��Sv/h),MP-6(��Sv/h),MP-7(��Sv/h),MP-8(��Sv/h),����,����(m/s),���J
2018/11/30,00:00,0.790,1.196,0.838,1.488,1.079,0.456,0.805,0.763,��쐼,0.9,��
2018/11/30,00:10,0.791,1.194,0.837,1.490,1.078,0.455,0.808,0.762,���k��,2.3,��
2018/11/30,00:20,0.790,1.192,0.836,1.488,1.075,0.456,0.807,0.762,���쐼,6.7,��
2018/11/30,00:30,0.791,1.193,0.836,1.488,1.079,0.457,0.806,0.762,�쐼,6.1,��
2018/11/30,00:40,0.789,1.193,0.836,1.487,1.079,0.456,0.807,0.761,�쐼,5.8,��
2018/11/30,00:50,0.788,1.192,0.835,1.489,1.077,0.457,0.807,0.764,���쐼,4.8,��
2018/11/30,01:00,0.789,1.192,0.837,1.488,1.078,0.455,0.807,0.761,���쐼,6.0,��
2018/11/30,01:10,0.789,1.191,0.838,1.485,1.079,0.457,0.806,0.763,��,3.2,��
2018/11/30,01:20,0.791,1.192,0.836,1.485,1.079,0.456,0.807,0.762,�k��,3.8,��
2018/11/30,01:30,0.790,1.193,0.836,1.497,1.080,0.456,0.807,0.760,�k��,4.3,��
2018/11/30,01:40,0.789,1.191,0.838,1.498,1.078,0.456,0.807,0.762,�k��,2.2,��
2018/11/30,01:50,0.791,1.194,0.837,1.498,1.078,0.457,0.807,0.762,���k��,3.0,��
2018/11/30,02:00,0.789,1.193,0.837,1.498,1.077,0.456,0.805,0.763,���k��,3.3,��
2018/11/30,02:10,0.790,1.191,0.836,1.502,1.077,0.455,0.807,0.762,���k��,4.2,��
2018/11/30,02:20,0.789,1.194,0.838,1.498,1.077,0.456,0.807,0.761,�k��,3.7,��
2018/11/30,02:30,0.788,1.193,0.837,1.502,1.077,0.457,0.806,0.763,�k��,4.7,�L
2018/11/30,02:40,0.789,1.192,0.837,1.497,1.077,0.454,0.806,0.761,�k��,3.9,��
2018/11/30,02:50,0.789,1.195,0.835,1.500,1.077,0.456,0.808,0.763,�k��,2.6,�L
2018/11/30,03:00,0.790,1.194,0.833,1.498,1.076,0.454,0.806,0.761,�k��,3.5,�L
2018/11/30,03:10,0.788,1.192,0.835,1.499,1.076,0.456,0.806,0.763,�k��,3.5,�L
2018/11/30,03:20,0.789,1.193,0.836,1.500,1.076,0.456,0.804,0.762,�k�k��,3.3,�L
2018/11/30,03:30,0.789,1.192,0.837,1.500,1.079,0.455,0.806,0.764,�k�k��,3.0,�L
2018/11/30,03:40,0.789,1.195,0.837,1.497,1.078,0.455,0.806,0.761,�k�k��,2.8,��
2018/11/30,03:50,0.790,1.193,0.834,1.493,1.076,0.455,0.804,0.762,�k��,2.5,��
2018/11/30,04:00,0.788,1.192,0.835,1.503,1.074,0.455,0.805,0.762,�k��,3.8,��
2018/11/30,04:10,0.787,1.193,0.835,1.496,1.077,0.456,0.806,0.763,�k��,5.4,��
2018/11/30,04:20,0.787,1.191,0.835,1.499,1.078,0.455,0.804,0.759,�k��,6.2,��
2018/11/30,04:30,0.787,1.193,0.834,1.496,1.076,0.455,0.805,0.762,�k��,5.4,��
2018/11/30,04:40,0.787,1.190,0.836,1.499,1.077,0.455,0.804,0.761,�k��,5.3,��
2018/11/30,04:50,0.786,1.189,0.835,1.497,1.077,0.453,0.803,0.762,���k��,4.5,��
2018/11/30,05:00,0.786,1.187,0.837,1.496,1.077,0.453,0.805,0.763,���k��,4.2,��
2018/11/30,05:10,0.788,1.193,0.834,1.496,1.077,0.455,0.805,0.762,���k��,3.7,��
2018/11/30,05:20,0.786,1.191,0.833,1.497,1.079,0.455,0.806,0.762,��,4.2,��
2018/11/30,05:30,0.787,1.190,0.835,1.497,1.075,0.453,0.804,0.761,��,5.8,��
2018/11/30,05:40,0.785,1.193,0.834,1.498,1.077,0.455,0.804,0.762,��,6.6,��
2018/11/30,05:50,0.788,1.192,0.835,1.495,1.078,0.454,0.804,0.761,���k��,5.2,��
2018/11/30,06:00,0.787,1.193,0.836,1.497,1.078,0.453,0.804,0.762,���k��,4.7,��
2018/11/30,06:10,0.788,1.189,0.834,1.495,1.078,0.453,0.806,0.762,���k��,4.1,��
2018/11/30,06:20,0.787,1.193,0.835,1.496,1.077,0.453,0.804,0.761,���k��,3.8,��
2018/11/30,06:30,0.786,1.191,0.835,1.496,1.076,0.453,0.803,0.760,���k��,3.8,��
2018/11/30,06:40,0.786,1.190,0.835,1.496,1.077,0.453,0.804,0.760,���k��,2.3,��
2018/11/30,06:50,0.787,1.191,0.834,1.494,1.080,0.453,0.804,0.762,���k��,2.5,��
2018/11/30,07:00,0.787,1.191,0.835,1.495,1.076,0.455,0.806,0.761,��,4.2,��
2018/11/30,07:10,0.788,1.191,0.834,1.498,1.077,0.455,0.805,0.762,��,4.2,��
2018/11/30,07:20,0.788,1.190,0.835,1.498,1.078,0.454,0.807,0.762,��,3.4,��
2018/11/30,07:30,0.788,1.191,0.835,1.497,1.076,0.455,0.807,0.760,���k��,4.5,��
2018/11/30,07:40,0.789,1.190,0.834,1.497,1.076,0.454,0.806,0.761,���k��,4.1,��
2018/11/30,07:50,0.787,1.192,0.834,1.500,1.078,0.454,0.806,0.762,���k��,3.6,��
2018/11/30,08:00,0.788,1.193,0.835,1.498,1.076,0.454,0.805,0.762,���k��,3.9,��
2018/11/30,08:10,0.789,1.193,0.833,1.495,1.078,0.455,0.806,0.761,��,2.9,��
2018/11/30,08:20,0.787,1.192,0.834,1.496,1.078,0.455,0.807,0.762,��,2.0,��
2018/11/30,08:30,0.788,1.186,0.836,1.498,1.078,0.453,0.805,0.763,-,CALM,��
2018/11/30,08:40,0.789,1.187,0.835,1.497,1.079,0.454,0.806,0.762,�k��,0.9,��
2018/11/30,08:50,0.789,1.186,0.830,1.499,1.078,0.454,0.807,0.762,�k�k��,0.6,��
2018/11/30,09:00,0.788,1.188,0.834,1.497,1.078,0.452,0.807,0.762,�k,1.7,��
2018/11/30,09:10,0.787,1.190,0.835,1.495,1.077,0.454,0.806,0.761,�k�k��,3.7,��
2018/11/30,09:20,0.788,1.189,0.835,1.499,1.079,0.453,0.805,0.763,�k��,5.9,��
2018/11/30,09:30,0.789,1.187,0.833,1.497,1.079,0.454,0.803,0.762,�k��,4.8,��
2018/11/30,09:40,0.789,1.187,0.834,1.499,1.080,0.455,0.804,0.762,�k��,4.5,�L
2018/11/30,09:50,0.787,1.187,0.835,1.497,1.080,0.454,0.805,0.764,�k��,4.8,�L
2018/11/30,10:00,0.789,1.181,0.833,1.500,1.080,0.453,0.805,0.762,�k��,5.2,�L
2018/11/30,10:10,0.791,1.187,0.835,1.499,1.082,0.453,0.805,0.762,���k��,3.5,��
2018/11/30,10:20,0.790,1.184,0.835,1.497,1.080,0.452,0.804,0.764,���k��,3.3,��
2018/11/30,10:30,0.790,1.184,0.833,1.499,1.080,0.454,0.805,0.763,�k��,4.2,��
2018/11/30,10:40,0.791,1.186,0.834,1.502,1.078,0.456,0.805,0.764,�k��,4.4,��
2018/11/30,10:50,0.788,1.182,0.834,1.498,1.081,0.455,0.805,0.763,�k��,4.3,��
2018/11/30,11:00,0.788,1.182,0.836,1.498,1.080,0.455,0.804,0.763,�k��,5.1,��
2018/11/30,11:10,0.791,1.187,0.835,1.500,1.080,0.456,0.806,0.763,�k��,4.8,��
2018/11/30,11:20,0.788,1.188,0.835,1.499,1.082,0.455,0.806,0.764,�k��,5.4,��
2018/11/30,11:30,0.789,1.187,0.835,1.501,1.083,0.455,0.804,0.763,�k��,4.7,��
2018/11/30,11:40,0.790,1.190,0.836,1.501,1.082,0.454,0.805,0.764,�k��,5.9,��
2018/11/30,11:50,0.789,1.189,0.835,1.498,1.082,0.454,0.804,0.763,�k��,5.6,��
2018/11/30,12:00,0.790,1.190,0.836,1.500,1.081,0.455,0.804,0.765,�k��,5.2,��
2018/11/30,12:10,0.788,1.190,0.839,1.502,1.080,0.455,0.805,0.765,�k��,5.3,��
2018/11/30,12:20,0.789,1.190,0.838,1.502,1.081,0.455,0.805,0.763,�k��,6.1,��
2018/11/30,12:30,0.793,1.190,0.837,1.501,1.080,0.455,0.806,0.763,�k�k��,5.1,��
2018/11/30,12:40,0.792,1.192,0.838,1.502,1.080,0.456,0.805,0.765,�k��,4.8,��
2018/11/30,12:50,0.789,1.188,0.838,1.503,1.080,0.456,0.807,0.764,�k��,4.5,��
2018/11/30,13:00,0.789,1.189,0.837,1.501,1.080,0.457,0.806,0.763,���k��,2.9,��
2018/11/30,13:10,0.790,1.191,0.837,1.506,1.081,0.457,0.806,0.764,�k�k��,3.3,��
2018/11/30,13:20,0.791,1.187,0.836,1.501,1.081,0.458,0.804,0.763,�k�k��,2.3,��
2018/11/30,13:30,0.790,1.190,0.838,1.503,1.084,0.457,0.805,0.763,�k�k��,3.4,��
2018/11/30,13:40,0.790,1.186,0.837,1.504,1.085,0.456,0.807,0.762,�k�k��,5.5,��
2018/11/30,13:50,0.789,1.188,0.836,1.501,1.084,0.455,0.806,0.760,�k�k��,4.8,��
2018/11/30,14:00,0.788,1.190,0.835,1.500,1.084,0.456,0.808,0.760,�k��,4.4,��
2018/11/30,14:10,0.788,1.186,0.835,1.504,1.085,0.455,0.808,0.761,�k��,5.2,��
2018/11/30,14:20,0.790,1.188,0.834,1.501,1.082,0.455,0.805,0.761,�k��,3.7,��
2018/11/30,14:30,0.792,1.188,0.834,1.503,1.084,0.458,0.807,0.761,�k,4.3,��
2018/11/30,14:40,0.791,1.188,0.835,1.504,1.081,0.456,0.808,0.760,�k�k��,6.8,��
2018/11/30,14:50,0.789,1.188,0.835,1.501,1.078,0.457,0.806,0.760,�k�k��,6.1,��
2018/11/30,15:00,0.788,1.186,0.834,1.500,1.081,0.453,0.806,0.761,�k�k��,6.2,��
2018/11/30,15:10,0.789,1.188,0.834,1.501,1.081,0.451,0.806,0.760,�k�k��,8.1,��
2018/11/30,15:20,0.790,1.191,0.836,1.501,1.083,0.451,0.807,0.761,�k��,7.7,��
2018/11/30,15:30,0.791,1.189,0.838,1.501,1.080,0.455,0.804,0.763,�k��,6.8,��
2018/11/30,15:40,0.791,1.191,0.838,1.501,1.081,0.456,0.805,0.765,�k��,6.4,��
2018/11/30,15:50,0.790,1.192,0.835,1.501,1.081,0.456,0.806,0.763,�k��,6.0,��
2018/11/30,16:00,0.791,1.196,0.840,1.501,1.079,0.456,0.805,0.763,�k��,6.4,��
2018/11/30,16:10,0.790,1.196,0.837,1.503,1.078,0.458,0.805,0.761,�k��,6.6,��
2018/11/30,16:20,0.793,1.198,0.837,1.501,1.082,0.456,0.806,0.763,�k��,6.3,��
2018/11/30,16:30,0.792,1.196,0.838,1.500,1.082,0.457,0.806,0.763,�k��,5.8,��
2018/11/30,16:40,0.790,1.196,0.838,1.500,1.082,0.456,0.809,0.763,�k��,5.7,��
2018/11/30,16:50,0.791,1.198,0.836,1.501,1.082,0.456,0.807,0.762,�k��,5.8,��
2018/11/30,17:00,0.790,1.196,0.838,1.500,1.081,0.456,0.808,0.762,�k��,5.9,��
2018/11/30,17:10,0.791,1.196,0.836,1.503,1.083,0.455,0.806,0.762,�k��,6.8,��
2018/11/30,17:20,0.789,1.197,0.837,1.501,1.081,0.455,0.807,0.763,�k��,8.4,��
2018/11/30,17:30,0.789,1.198,0.837,1.503,1.083,0.456,0.806,0.761,�k��,9.1,��
2018/11/30,17:40,0.788,1.197,0.836,1.504,1.082,0.455,0.807,0.764,�k��,9.6,��
2018/11/30,17:50,0.791,1.195,0.837,1.501,1.081,0.456,0.808,0.763,�k��,9.0,��
2018/11/30,18:00,0.791,1.198,0.837,1.501,1.081,0.455,0.807,0.764,�k��,9.9,��
2018/11/30,18:10,0.791,1.197,0.839,1.501,1.082,0.454,0.807,0.762,�k��,9.2,��
2018/11/30,18:20,0.788,1.197,0.837,1.500,1.082,0.455,0.806,0.760,�k��,10.2,��
2018/11/30,18:30,0.791,1.199,0.838,1.502,1.078,0.456,0.808,0.762,�k��,10.6,��
2018/11/30,18:40,0.789,1.196,0.837,1.503,1.083,0.453,0.807,0.762,�k��,7.6,��
2018/11/30,18:50,0.790,1.197,0.838,1.499,1.082,0.456,0.806,0.762,���k��,3.4,��
2018/11/30,19:00,0.790,1.196,0.836,1.501,1.082,0.455,0.807,0.762,���쐼,2.0,��
2018/11/30,19:10,0.789,1.195,0.838,1.503,1.081,0.454,0.807,0.763,��,4.5,��
2018/11/30,19:20,0.788,1.195,0.839,1.501,1.083,0.453,0.805,0.762,��,4.8,��
2018/11/30,19:30,0.789,1.196,0.836,1.506,1.080,0.456,0.807,0.764,��,4.6,��
2018/11/30,19:40,0.790,1.198,0.836,1.500,1.079,0.455,0.807,0.763,��,4.3,��
2018/11/30,19:50,0.789,1.195,0.836,1.502,1.081,0.456,0.807,0.761,��,5.2,��
2018/11/30,20:00,0.788,1.198,0.837,1.505,1.083,0.456,0.807,0.764,���k��,4.9,��
2018/11/30,20:10,0.791,1.197,0.837,1.502,1.082,0.455,0.805,0.764,���k��,2.0,�L
2018/11/30,20:20,0.790,1.197,0.838,1.503,1.081,0.455,0.804,0.763,���k��,3.2,��
2018/11/30,20:30,0.792,1.195,0.838,1.501,1.082,0.455,0.805,0.762,���k��,2.6,��
2018/11/30,20:40,0.791,1.195,0.837,1.501,1.080,0.455,0.807,0.763,�k��,2.0,��
2018/11/30,20:50,0.790,1.197,0.839,1.504,1.081,0.456,0.808,0.763,�k��,2.9,�L
2018/11/30,21:00,0.790,1.197,0.836,1.499,1.082,0.457,0.805,0.763,�k�k��,2.9,�L
2018/11/30,21:10,0.790,1.196,0.836,1.502,1.082,0.455,0.807,0.762,�k�k��,3.4,�L
2018/11/30,21:20,0.791,1.196,0.838,1.503,1.082,0.455,0.808,0.763,�k�k��,3.8,��
2018/11/30,21:30,0.791,1.196,0.838,1.502,1.081,0.454,0.807,0.763,�k�k��,4.1,�L
2018/11/30,21:40,0.789,1.195,0.836,1.503,1.081,0.455,0.806,0.762,�k�k��,5.0,�L
2018/11/30,21:50,0.789,1.198,0.838,1.502,1.083,0.455,0.807,0.763,�k��,3.3,�L
2018/11/30,22:00,0.790,1.195,0.838,1.503,1.082,0.456,0.806,0.763,�k��,3.8,�L
2018/11/30,22:10,0.790,1.196,0.838,1.499,1.080,0.454,0.805,0.761,�k�k��,3.0,�L
2018/11/30,22:20,0.790,1.195,0.838,1.504,1.083,0.454,0.804,0.761,�k��,2.6,�L
2018/11/30,22:30,0.789,1.195,0.839,1.502,1.083,0.456,0.805,0.762,�k�k��,3.3,�L
2018/11/30,22:40,0.789,1.197,0.838,1.502,1.079,0.456,0.805,0.763,�k��,2.6,��
2018/11/30,22:50,0.790,1.197,0.839,1.502,1.083,0.456,0.805,0.763,�k��,2.2,�L
2018/11/30,23:00,0.790,1.195,0.838,1.501,1.082,0.455,0.806,0.764,���k��,2.5,��
2018/11/30,23:10,0.789,1.193,0.838,1.502,1.081,0.455,0.805,0.761,��,2.6,��
2018/11/30,23:20,0.790,1.195,0.837,1.503,1.081,0.455,0.806,0.761,���k��,1.5,�L
2018/11/30,23:30,0.790,1.195,0.839,1.501,1.080,0.455,0.806,0.762,��,0.9,��
2018/11/30,23:40,0.789,1.195,0.838,1.500,1.080,0.454,0.807,0.761,��,1.2,��
2018/11/30,23:50,0.788,1.196,0.836,1.503,1.081,0.455,0.806,0.763,��,2.0,��
